This is the latest recevied weather packets stored in our database for station/object K5VP. If no packets are shown the sender has not sent any weather packets the latest 10 day(s).
| Time | Temp. | Humidity | Pressure | Rain* | Wind** | Luminosity | Snow |
|---|---|---|---|---|---|---|---|
| 1777409283 | 25.56° C | 78% | 1013 hPa | 0 mm | - | - | - |
| 1777408966 | 26.11° C | 76% | 1012.7 hPa | 0 mm | - | - | - |
| 1777408656 | 26.67° C | 75% | 1012.8 hPa | 0 mm | - | - | - |
| 1777408361 | 26.67° C | 74% | 1012.9 hPa | 0 mm | - | - | - |
| 1777408052 | 27.22° C | 72% | 1012.8 hPa | 0 mm | - | - | - |
| 1777407736 | 27.22° C | 71% | 1012.8 hPa | 0 mm | - | - | - |
| 1777407416 | 27.22° C | 71% | 1013 hPa | 0 mm | - | - | - |
| 1777407122 | 27.22° C | 71% | 1013.2 hPa | 0 mm | - | - | - |
| 1777406804 | 27.22° C | 72% | 1013.3 hPa | 0 mm | - | - | - |
| 1777406490 | 27.22° C | 70% | 1013.5 hPa | 0 mm | - | - | - |
| 1777406185 | 27.22° C | 70% | 1013.8 hPa | 0 mm | - | - | - |
| 1777405874 | 27.22° C | 69% | 1014 hPa | 0 mm | - | - | - |
| 1777405561 | 27.22° C | 71% | 1014.1 hPa | 0 mm | - | - | - |
| 1777405256 | 27.22° C | 70% | 1014.4 hPa | 0 mm | - | - | - |
| 1777404936 | 27.22° C | 70% | 1014.6 hPa | 0 mm | - | - | - |
| 1777404627 | 27.22° C | 71% | 1014.9 hPa | 0 mm | - | - | - |
| 1777404321 | 27.22° C | 71% | 1014.9 hPa | 0 mm | - | - | - |
| 1777404001 | 27.22° C | 71% | 1015 hPa | 0 mm | - | - | - |
| 1777403694 | 27.22° C | 70% | 1015.3 hPa | 0 mm | - | - | - |
| 1777403375 | 27.22° C | 71% | 1015.5 hPa | 0 mm | - | - | - |
| 1777403058 | 27.22° C | 71% | 1015.5 hPa | 0 mm | - | - | - |
| 1777402753 | 27.22° C | 71% | 1015.4 hPa | 0 mm | - | - | - |
| 1777402454 | 27.22° C | 71% | 1015.3 hPa | 0 mm | - | - | - |
| 1777402155 | 26.67° C | 74% | 1015.5 hPa | 0 mm | - | - | - |
| 1777401857 | 26.67° C | 73% | 1015.5 hPa | 0 mm | - | - | - |
* Rain latest hour (hover to see other rain measurements)
** Current wind speed in m/s (hover to see current wind gust speed)